Terminal Aerodrome Forecast
Issued by NWS

Current Version | Previous Version | Graphics & Text | Print | Product List | Glossary On
Versions: 1 2 3 4 5 6 7 8 9 10 11 12 13 14 15 16 17
000
FTUS41 KRNK 201307 AAA
TAFLWB
TAF AMD
KLWB 201307Z 2013/2112 00000KT 1/2SM FG OVC001
      TEMPO 2013/2014 4SM BR SCT001 SCT015
     FM201400 23003KT P6SM FEW025
     FM210800 00000KT 1/4SM FG OVC001=

USA.gov is the U.S. government's official web portal to all federal, state and local government web resources and services.